カタログに戻る

OPS 4682 DEB

運用中PO
NORAD 38378·DEBRIS·🇺🇸 United States

打ち上げ Apr 3, 1965 から Vandenberg Space Force Base

Loading…

次のパス (今後24時間)

TLE

最新Source: Space-Track

元期: Sep 12, 2026, 16:09 UTC

1 38378U 65027CF  26255.67316590  .00000271  00000-0  83289-3 0  9999
2 38378  90.2300 341.2320 0032271 313.6829  46.1621 13.03311241630409

AllMySatでOPS 4682 DEBをリアルタイム追跡

Download on the App Store